SL-14 DEB, 45267

Orbit data source: Space-Track

SL-14 DEB, 45267 is space debris in LEO originally from a launch on Thu, 15 Aug 1991 UTC launched from the Plesetsk Missile And Space Complex (PKMTR). Debris objects in space refer to the collection of defunct objects orbiting the Earth. Examples of debris include non-operational satellites, rocket bodies, and fragments generated from explosions, collisions, or faulty payload assembly.

Loading next visibility...
Identifier
45267, 1991-056D
Orbit
LEO
Country
Flag of CISCIS
Related business
Manufacturer
Unknown
Mission
Spacecraft
Bus & Motor
Unknown
Mass
Unknown
Launch date (UTC)
1991-08-15 (34 years ago)
Launch vehicle
Unknown
Launch site
Plesetsk Missile And Space Complex (PKMTR)
Object type
Payload
Rocket body
Debris
Shape & HBR
Unknown shape, 0.4 m
Radar Cross Section
Medium (>0.1 m² and <1 m²)

Expand to show TLE details & history
Last TLE update: 18 hours ago

TLE from 18 hours ago
0 SL-14 DEB
1 45267U 91056D   25286.87872806  .00000183  00000-0  46381-3 0  9991
2 45267  82.5671 323.1907 0015881 155.5381 204.6496 13.14124019271873
Epoch: 2025-10-13T21:05Z
TLE epoch observation values (Epoch: 2025-10-13T21:05:22.104Z)
Latitude
-0.00008°
Longitude
-15.8266°
Altitude
1,221.005 km
Speed
7.239 km/s
True Right ascension
21h 32m 45s
True Declination
0° 00' 00"
Sunlit
Object was in full shadow at epoch
Visualization orbit readout
Latitude
Unknown
Longitude
Unknown
Altitude
Unknown
Speed
Unknown
Apparent Right ascension
Unknown
Apparent Declination
Unknown
Sunlit
N/A
Visualization observer readout
Local Sidereal Time
09:57:36
Azimuth
Unknown
Elevation
Unknown
Doppler factor
Unknown
Orbital elements
Apogee altitude
1,216.538 km
Perigee altitude
1,192.454 km
Semi-major axis
7,582.633 km
Eccentricity
0.00159
Inclination
82.5671°
RAAN
323.1907°
Arg. of periapsis
155.5381°
True anomaly
204.57384°
Mean anomaly
204.6496°
Eccentric anomaly
204.61171°
Mean motion
3.2871 °/min
Orbital period
109.52 mins
BSTAR
0.00046381
Loading maneuver chart data...
Computing Atmospheric mass density...
Loading historical data...
Loading historical data...
Loading historical data...
Loading historical data...
Loading historical data...
Loading historical data...
Loading historical data...

Documentation

Showing up to 5 results
|